Location: München
(48.1371°N, 11.5754°E)
Time: 20:35:11
(UTC+01:00)

BlueWalker 3 - Visible Passes

Search period start: 29 November 2023 00:00
Search period end: 09 December 2023 00:00
Orbit: 489 x 504 km, 53.2° (Epoch: 29 November)

Date Brightness Start Highest point End Pass type
(mag) Time Alt. Az. Time Alt. Az. Time Alt. Az.
29 Nov 4.5 04:32:45 19° ENE 04:32:45 19° ENE 04:34:07 10° ENE visible
29 Nov 2.0 06:07:19 27° NW 06:09:16 73° NNE 06:13:05 10° ESE visible
30 Nov 5.1 04:11:09 12° ENE 04:11:09 12° ENE 04:11:32 10° ENE visible
30 Nov 2.0 05:45:43 47° NW 05:46:42 72° NNE 05:50:31 10° ESE visible
01 Dec 1.9 05:24:08 72° NNE 05:24:08 72° NNE 05:27:55 10° ESE visible
01 Dec 3.3 06:58:58 10° W 07:02:13 26° SW 07:05:27 10° SSE visible
02 Dec 3.0 05:02:34 44° E 05:02:34 44° E 05:05:18 10° ESE visible
02 Dec 3.2 06:37:08 14° W 06:39:37 27° SW 06:42:51 10° SSE visible
03 Dec 4.2 04:41:03 24° ESE 04:41:03 24° ESE 04:42:40 10° ESE visible
03 Dec 3.2 06:15:37 22° WSW 06:16:59 27° SW 06:20:14 10° SSE visible
04 Dec 5.0 04:19:35 13° ESE 04:19:35 13° ESE 04:20:01 10° ESE visible
04 Dec 3.1 05:54:09 27° SW 05:54:21 27° SW 05:57:36 10° SSE visible
05 Dec 3.5 05:32:44 24° SSW 05:32:44 24° SSW 05:34:58 10° SSE visible
06 Dec 4.3 05:11:22 15° S 05:11:22 15° S 05:12:18 10° SSE visible
